Caldwell, NJ

12:31 AM EDT on September 16, 2019 (GMT -0400)
Essex County

Weather History for KCDW - July, 2019

Change the Weather History Date:

Monday, July 15, 2019

  Actual Average Record
Temperature  
Mean Temperature 76 °F -  
Max Temperature 89 °F 86 °F 100 °F (1954)
Min Temperature 64 °F 63 °F 53 °F (1950)
Cooling Degree Days 11    
Growing Degree Days 26 (Base 50)    
Moisture  
Dew Point 59 °F    
Average Humidity 54    
Maximum Humidity 84    
Minimum Humidity 37    
Precipitation  
Precipitation 0.00 in - - ()
Sea Level Pressure  
Sea Level Pressure 30.06 in    
Wind  
Wind Speed 2 mph (West)    
Max Wind Speed 8 mph    
Max Gust Speed -    
Visibility 10 miles    
Events      
Averages and records for this station are not official NWS values.
T = Trace of Precipitation, MM = Missing Value Source: NWS Daily Summary

Daily Weather History Graph

Daily Weather History Graph

Search for Another Location

Airport or City:

Astronomy

Jul. 15, 2019 Rise Set
Actual Time 5:38 AM EDT 8:27 PM EDT
Civil Twilight 5:05 AM EDT 9:00 PM EDT
Nautical Twilight 4:24 AM EDT 9:40 PM EDT
Astronomical Twilight 3:37 AM EDT 10:27 PM EDT
Moon 7:43 PM EDT (7/15) 4:23 AM EDT (7/15)
Length of Visible Light 15h 54m
Length of Day
14h 49m
Waxing Gibbous, 98% of the Moon is Illuminated
Jul 15
Waxing Gibbous
Jul 16
Full
Jul 24
Last Quarter
Jul 31
New
Aug 7
First Quarter

Hourly Weather History & Observations

Time (EDT) Temp. Heat Index Dew Point Humidity Pressure Visibility Wind Dir Wind Speed Gust Speed Precip Events Conditions
12:53 AM 72.0 °F - 59.0 °F 64% 30.05 in 10.0 mi Calm Calm - N/A   Clear
2:53 AM 69.1 °F - 59.0 °F 70% 30.04 in 10.0 mi Calm Calm - N/A   Clear
3:53 AM 68.0 °F - 59.0 °F 73% 30.06 in 10.0 mi South 3.5 mph - N/A   Clear
4:53 AM 64.9 °F - 60.1 °F 84% 30.08 in 10.0 mi Calm Calm - N/A   Clear
5:53 AM 64.9 °F - 60.1 °F 84% 30.09 in 10.0 mi SSW 3.5 mph - N/A   Clear
6:53 AM 69.1 °F - 60.1 °F 73% 30.10 in 10.0 mi Calm Calm - N/A   Clear
7:53 AM 72.0 °F - 60.1 °F 66% 30.11 in 10.0 mi Calm Calm - N/A   Clear
8:53 AM 75.9 °F - 59.0 °F 56% 30.12 in 10.0 mi West 3.5 mph - N/A   Clear
9:53 AM 79.0 °F - 55.0 °F 44% 30.11 in 10.0 mi West 3.5 mph - N/A   Clear
10:53 AM 81.0 °F 80.8 °F 55.9 °F 42% 30.11 in 10.0 mi NW 5.8 mph - N/A   Clear
11:53 AM 82.0 °F 81.4 °F 55.0 °F 39% 30.09 in 10.0 mi NW 8.1 mph - N/A   Clear
12:53 PM 82.9 °F 82.4 °F 57.0 °F 41% 30.08 in 10.0 mi Variable 5.8 mph - N/A   Clear
1:53 PM 84.9 °F 84.2 °F 57.9 °F 40% 30.06 in 10.0 mi North - - N/A   Clear
2:53 PM 86.0 °F 84.9 °F 57.0 °F 37% 30.04 in 10.0 mi WSW 5.8 mph - N/A   Clear
3:53 PM 88.0 °F 87.1 °F 59.0 °F 37% 30.03 in 10.0 mi West 5.8 mph - N/A   Clear
4:53 PM 88.0 °F 87.1 °F 59.0 °F 37% 30.03 in 10.0 mi NW 6.9 mph - N/A   Clear
5:53 PM 88.0 °F 87.1 °F 59.0 °F 37% 30.02 in 10.0 mi WNW 8.1 mph - N/A   Clear
6:53 PM 87.1 °F 86.5 °F 59.0 °F 39% 30.02 in 10.0 mi Variable 4.6 mph - N/A   Clear
7:53 PM 84.0 °F 84.4 °F 61.0 °F 46% 30.03 in 10.0 mi WNW 3.5 mph - N/A   Clear
8:53 PM 81.0 °F 81.7 °F 61.0 °F 50% 30.04 in 10.0 mi Calm Calm - N/A   Clear
9:53 PM 79.0 °F - 61.0 °F 54% 30.05 in 10.0 mi Calm Calm - N/A   Clear
10:53 PM 75.9 °F - 62.1 °F 62% 30.06 in 10.0 mi Calm Calm - N/A   Clear
11:53 PM 73.9 °F - 64.0 °F 71% 30.07 in 10.0 mi Calm Calm - N/A   Clear